Flag for Germany Weather past 2 weeks in Erkrath, North Rhine-Westphalia, Germany

Now
55 °F

Fog.


Feels Like: 54 °F
Forecast: 52 / 64 °F
Wind: 6 mph from Southwest

Location: Duesseldorf

Current Time: Aug 31, 2014 at 3:16:34 AM

Latest Report: Aug 31, 2014 at 2:50 AM


Visibility: N/A

Pressure: 29.98 "Hg

Humidity: 100%

Dew point: 55 °F

Location of ErkrathLocation

Historic Weather in Erkrath — Graph

°F

Erkrath temperature yesterday

Maximum temperature yesterday: 66 °F (at 2:50 PM)
Minimum temperature yesterday: 57 °F (at 11:50 PM)
Average temperature yesterday: 62 °F

Past Weeks' High & Low Weather Summary

 TemperatureHumidityPressure
High73 °F (Aug 28, 2:20 PM)100% (Aug 26, 8:20 AM)30.09 "Hg (Aug 26, 8:20 AM)
Low46 °F (Aug 20, 2:50 AM)40% (Aug 27, 4:20 PM)29.62 "Hg (Aug 26, 4:50 AM)
Average59 °F77%29.93 "Hg
* Reported Aug 16 1:20 AM — Aug 31 1:50 AM, Erkrath, Weather by CustomWeather, © 2014

Note: Actual official high and low records may vary slightly from our data, if they occured in-between our weather recording intervals... More about our weather records

Advertising

Erkrath weather history for previous 24 hours

 ConditionsComfort  
Time TempWeatherWind HumidityBarometerVisibility
1:50 AM
Aug 31
57 °FPassing clouds.6 mph94%29.98 "HgN/A
1:20 AM57 °FPartly cloudy.6 mph94%30.01 "Hg6 mi
12:50 AM57 °FPartly cloudy.6 mph94%30.01 "HgN/A
12:20 AM57 °FPassing clouds.6 mph94%30.01 "HgN/A
11:50 PM
Aug 30
57 °FPartly cloudy.7 mph88%30.01 "HgN/A
11:20 PM59 °FPassing clouds.7 mph88%30.01 "HgN/A
10:50 PM59 °FPassing clouds.6 mph94%30.01 "HgN/A
10:20 PM59 °FPassing clouds.6 mph94%30.01 "HgN/A
9:50 PM59 °FPassing clouds.8 mph94%30.01 "HgN/A
9:20 PM59 °FBroken clouds.8 mph94%30.01 "HgN/A
8:50 PM59 °FBroken clouds.8 mph94%30.01 "HgN/A
8:20 PM59 °FSprinkles. Partly sunny.8 mph94%29.98 "HgN/A
7:20 PM61 °FSprinkles. Broken clouds.10 mph94%29.98 "Hg4 mi
6:50 PM64 °FSprinkles. Partly sunny.12 mph78%29.98 "HgN/A
6:20 PM64 °FSprinkles. Partly sunny.13 mph78%29.98 "HgN/A
5:50 PM64 °FPartly sunny.16 mph78%29.98 "HgN/A
5:20 PM66 °FBroken clouds.14 mph73%29.98 "HgN/A
4:50 PM66 °FPartly sunny.14 mph73%30.01 "HgN/A
4:20 PM66 °FPartly sunny.15 mph73%29.98 "HgN/A
3:50 PM66 °FPartly sunny.14 mph73%30.01 "HgN/A
3:20 PM66 °FPartly sunny.15 mph73%30.01 "HgN/A
2:50 PM66 °FPartly sunny.13 mph73%30.01 "HgN/A
2:20 PM64 °FPartly sunny.16 mph78%30.01 "HgN/A
1:50 PM64 °FPartly sunny.17 mph78%30.01 "HgN/A
1:20 PM64 °FPartly sunny.15 mph78%30.01 "HgN/A
12:50 PM64 °FPartly sunny.15 mph78%30.01 "HgN/A
12:20 PM63 °FBroken clouds.12 mph83%30.01 "HgN/A
11:50 AM63 °FPartly sunny.15 mph77%30.01 "HgN/A
11:20 AM63 °FPartly sunny.15 mph77%30.01 "HgN/A
10:50 AM63 °FPartly sunny.16 mph77%30.01 "HgN/A
10:20 AM63 °FPartly sunny.13 mph77%30.01 "HgN/A
9:50 AM63 °FLight rain. Partly sunny.12 mph77%30.01 "HgN/A
9:20 AM63 °FPartly sunny.13 mph73%30.01 "HgN/A
8:50 AM63 °FPartly sunny.12 mph73%30.01 "HgN/A
8:20 AM63 °FBroken clouds.13 mph73%30.01 "HgN/A
7:50 AM63 °FPartly sunny.12 mph73%30.01 "HgN/A
7:20 AM61 °FClear.12 mph77%30.01 "Hg10 mi
6:50 AM63 °FPassing clouds.12 mph73%30.01 "HgN/A
6:20 AM63 °FPassing clouds.13 mph73%30.01 "HgN/A
5:50 AM61 °FPassing clouds.10 mph77%30.01 "HgN/A
5:20 AM61 °FPassing clouds.12 mph77%30.01 "HgN/A
4:50 AM61 °FPassing clouds.10 mph77%30.01 "HgN/A
4:20 AM61 °FClear.12 mph77%30.01 "Hg10 mi
3:50 AM61 °FClear.13 mph77%30.01 "Hg10 mi
3:20 AM61 °FClear.12 mph77%30.01 "Hg10 mi
Weather by CustomWeather, © 2014

See weather overviewHow to use our weather pages